Printer-friendly version

IAU Minor Planet Center

Minor Planet Center

MPEC 2010-F04 : 2010 EV45

The following Minor Planet Electronic Circular may be linked-to from your own Web pages, but must not otherwise be redistributed electronically.

A form allowing access to any MPEC is at the bottom of this page.


Read MPEC 2010-F03 Read MPEC 2010-F05


M.P.E.C. 2010-F04                                Issued 2010 Mar. 16, 16:56 UT

     The Minor Planet Electronic Circulars contain information on unusual
         minor planets and routine data on comets.  They are published
   on behalf of Commission 20 of the International Astronomical Union by the
          Minor Planet Center, Smithsonian Astrophysical Observatory,
                          Cambridge, MA 02138, U.S.A.

             Prepared using the Tamkin Foundation Computer Network

                              MPC@CFA.HARVARD.EDU
       URL http://www.minorplanetcenter.org/iau/mpc.html  ISSN 1523-6714

                                   2010 EV45

Observations:
     K10E45V* C2010 03 15.09100 15 34 50.41 +01 26 28.1          19.5 V EF004J75
     K10E45V  C2010 03 15.10530 15 34 53.12 +01 26 35.0          19.6 V EF004J75
     K10E45V  C2010 03 15.11963 15 34 55.77 +01 26 43.6          19.5 V EF004J75
     K10E45V  C2010 03 15.17782 15 35 06.58 +01 27 14.0          19.4 V EF004J75
     K10E45V  C2010 03 15.18604 15 35 08.10 +01 27 19.1          19.5 V EF004J75
     K10E45V  C2010 03 15.19468 15 35 09.68 +01 27 23.4          19.6 V EF004J75
     K10E45V EC2010 03 16.06594 15 37 57.85 +01 35 15.6                 EF004J95
     K10E45V KC2010 03 16.07427 15 37 59.41 +01 35 20.0                 EF004J95
     K10E45V  C2010 03 16.07576 15 37 59.80 +01 35 24.7          19.5 V EF004J75
     K10E45V  C2010 03 16.08034 15 38 00.68 +01 35 27.3          19.5 V EF004J75
     K10E45V KC2010 03 16.08244 15 38 00.95 +01 35 24.9          20.0 R EF004J95
     K10E45V  C2010 03 16.45113 15 39 11.83 +01 38 54.7          19.7 R EF004854
     K10E45V  C2010 03 16.45596 15 39 12.70 +01 38 57.5          20.4 V EF004703
     K10E45V  C2010 03 16.46295 15 39 14.04 +01 39 01.5          20.0 V EF004703
     K10E45V  C2010 03 16.46992 15 39 15.44 +01 39 03.9          19.7 V EF004703
     K10E45V  C2010 03 16.47035 15 39 15.46 +01 39 06.4          20.2 R EF004854
     K10E45V  C2010 03 16.47689 15 39 16.59 +01 39 09.5          20.1 V EF004703
     K10E45V  C2010 03 16.50411 15 39 21.77 +01 39 25.1          20.9 R EF004926
     K10E45V  C2010 03 16.50505 15 39 22.03 +01 39 23.7          20.6 V EF004703
     K10E45V  C2010 03 16.50704 15 39 22.31 +01 39 26.3          21.1 R EF004926
     K10E45V  C2010 03 16.50979 15 39 22.71 +01 39 28.1          20.6 V EF004703
     K10E45V  C2010 03 16.50998 15 39 22.80 +01 39 28.4          21.1 R EF004926
     K10E45V  C2010 03 16.51455 15 39 23.65 +01 39 29.1          21.3 V EF004703
     K10E45V  C2010 03 16.51935 15 39 24.48 +01 39 33.5          21.2 V EF004703

Observer details:
703 Catalina Sky Survey.  Observer A. Boattini.  Measurers J. D. Ahern,
    E. C. Beshore, A. Boattini, G. J. Garradd, A. R. Gibbs, A. D. Grauer,
    R. E. Hill, R. A. Kowalski, S. M. Larson, R. H. McNaught.  0.68-m Schmidt
    + CCD.
854 Sabino Canyon Observatory, Tucson.  Observer J. E. McGaha.  0.36-m f/10.0
    Schmidt-Cassegrain + CCD.
926 Tenagra II Observatory.  Observers P. R. Holvorcem, M. Schwartz.  Measurer
    P. R. Holvorcem.  0.81-m f/7 Ritchey-Chretien + CCD.
J75 OAM Observatory, La Sagra.  Observers S. Sanchez, J. Nomen, R. Stoss,
    J. Rodriguez, M. Hurtado, W. K. Y. Yeung.  0.40-m f/10 reflector + CCD,
    0.45-m f/2.8 reflector + CCD.
J95 Great Shefford.  Observer P. Birtwhistle.  0.40-m f/6.0 Schmidt-Cassegrain
    + CCD.

Orbital elements:
2010 EV45                                                Earth MOID = 0.1698 AU
Epoch 2010 Jan. 4.0 TT = JDT 2455200.5                  MPC
M 300.88921              (2000.0)            P               Q
n   0.43562440     Peri.  123.11394     -0.38813394     +0.91507134
a   1.7234337      Node   123.67015     -0.88333169     -0.33548665
e   0.3355798      Incl.    7.56243     -0.26282534     -0.22381500
P   2.26           H   19.8           G   0.15           U   9
Residuals in seconds of arc
100315 J75  0.6-  0.4+    100316 J75  0.5-  0.3+    100316 703  0.9-  0.4+
100315 J75  0.2+  0.4-    100316 J75  0.2-  0.3+    100316 926  0.7+  0.5+
100315 J75  0.0   0.5+    100316 J95  0.0   0.1+    100316 703  2.0+  1.2-
100315 J75  0.3+  0.5-    100316 854  0.4-  0.0     100316 926  0.6+  0.0
100315 J75  0.2+  0.2+    100316 703  0.8-  0.1+    100316 703  1.1-  0.6+
100315 J75  0.1-  0.1-    100316 703  0.2-  0.2+    100316 926  0.2-  0.5+
100316 J95  0.2+  0.0     100316 703  1.3+  1.3-    100316 703  0.3-  1.1-
100316 J95  0.0   0.3-    100316 854  0.4+  0.9+    100316 703  1.2-  0.7+

Ephemeris:
2010 EV45                a,e,i = 1.72, 0.34, 8                   q = 1.1451
Date    TT    R. A. (2000) Decl.     Delta      r     Elong.  Phase     V
2010 03 15    15 34.54   +01 25.8    0.455    1.289   121.0    41.4    20.3
2010 03 25    16 07.43   +03 07.2    0.397    1.252   121.7    42.6    19.9
2010 04 04    16 42.20   +05 06.0    0.349    1.219   121.4    44.4    19.7
2010 04 14    17 18.39   +07 08.7    0.312    1.191   120.4    46.6    19.4
2010 04 24    17 55.16   +08 55.5    0.284    1.170   119.0    48.8    19.2
2010 05 04    18 31.52   +10 06.1    0.262    1.154   117.9    50.5    19.1
2010 05 14    19 06.02   +10 24.1    0.247    1.146   117.7    51.3    19.0
2010 05 24    19 37.18   +09 35.8    0.236    1.146   119.1    50.5    18.8
2010 06 03    20 03.84   +07 34.8    0.228    1.153   122.5    47.9    18.7
2010 06 13    20 24.83   +04 19.0    0.224    1.167   128.1    43.2    18.6
2010 06 23    20 39.40   -00 08.8    0.224    1.188   136.0    36.4    18.4
2010 07 03    20 47.61   -05 31.5    0.231    1.215   146.1    27.8    18.3
2010 07 13    20 50.03   -11 18.4    0.245    1.247   157.8    18.0    18.2
2010 07 23    20 48.43   -16 46.1    0.271    1.284   169.9     8.0    18.1
2010 08 02    20 45.32   -21 15.9    0.309    1.323   176.6     2.6    18.1
2010 08 12    20 42.92   -24 29.9    0.360    1.366   166.2    10.2    18.9
2010 08 22    20 42.99   -26 29.3    0.425    1.410   156.2    16.8    19.6
2010 09 01    20 46.22   -27 26.8    0.501    1.456   147.1    22.1    20.2
2010 09 11    20 52.53   -27 37.3    0.590    1.502   138.9    26.1    20.7
2010 09 21    21 01.59   -27 12.6    0.689    1.549   131.5    29.1    21.2
2010 10 01    21 12.82   -26 22.4    0.798    1.596   124.5    31.1    21.7

Sonia Keys                   (C) Copyright 2010 MPC           M.P.E.C. 2010-F04

Read MPEC 2010-F03 Read MPEC 2010-F05


MPEC number:

Enter an
MPEC number in one of the following forms:
  • 1997-B01 (the full form)
  • J97B01 (the packed version of the full form)
  • B01 (the abbreviated form)

Valid HTML 4.01!